This demonstration page uses our WeatherBlox Daily Observations layout. Learn more.

Left ArrowRight Arrow

34.74481, -87.66753

Hourly Observations for April 14, 2015

Temp ( °F °C ) Dew Point ( °F °C ) Humidity (%) Winds ( mph kmh ) Pressure ( in mb ) Visibility ( mi km ) Precip ( " mm )
12:19 am 00:19 Cloudy 69 20.6 66 18.9 90 90 SSE 5 7 29.97 1015 N/A 0.00 0.00
12:34 am 00:34 Partly Cloudy 68 20 66 18.9 93 93 SSE 6 9 29.97 1015 N/A 0.00 0.00
12:53 am 00:53 Partly Cloudy 68 20 66 18.9 93 93 SE 3 6 29.98 1015 N/A 0.00 0.00
1:53 am 01:53 Cloudy with Light Rain 68 20 66 18.9 93 93 SE 6 9 29.96 1015 N/A 0.06 1.52
2:24 am 02:24 Cloudy 68 20 66 18.9 93 93 Calm 29.94 1014 N/A 0.00 0.03
2:33 am 02:33 Cloudy 68 20 66 18.9 93 93 SE 3 6 29.94 1014 N/A 0.00 0.03
2:40 am 02:40 Cloudy 68 20 66 18.9 93 93 SSE 3 6 29.94 1014 N/A 0.00 0.03
2:53 am 02:53 Cloudy 68 20 66 18.9 93 93 SE 3 6 29.95 1014 N/A 0.00 0.03
3:35 am 03:35 Cloudy 68 20 66 18.9 93 93 Calm 29.94 1014 N/A 0.00 0.00
3:53 am 03:53 Cloudy with Light Rain 68 20 66 18.9 93 93 WSW 3 6 29.95 1014 N/A 0.00 0.03
4:21 am 04:21 Cloudy 68 20 66 18.9 93 93 WSW 5 7 29.94 1014 N/A 0.01 0.25
4:44 am 04:44 Mostly Cloudy 68 20 65 18.3 90 90 WSW 7 11 29.94 1014 N/A 0.01 0.25
4:53 am 04:53 Mostly Cloudy 67 19.4 65 18.3 93 93 W 6 9 29.96 1015 N/A 0.01 0.25
5:25 am 05:25 Cloudy 68 20 65 18.3 90 90 WSW 7 11 29.97 1015 N/A 0.00 0.00
5:53 am 05:53 Cloudy 68 20 65 18.3 90 90 WSW 10 17 29.98 1015 N/A 0.00 0.00
6:35 am 06:35 Cloudy 68 20 64 17.8 87 87 WSW 8 13 30.00 1016 N/A 0.00 0.00
6:53 am 06:53 Cloudy 68 20 65 18.3 90 90 WSW 6 9 30.01 1016 N/A 0.00 0.00
7:05 am 07:05 Cloudy 68 20 65 18.3 90 90 WSW 7 11 30.00 1016 N/A 0.00 0.00
7:13 am 07:13 Cloudy 68 20 65 18.3 90 90 WSW 8 13 30.00 1016 N/A 0.00 0.00
7:40 am 07:40 Cloudy 68 20 65 18.3 90 90 WSW 8 13 30.00 1016 N/A 0.00 0.00
7:53 am 07:53 Cloudy 68 20 64 17.8 87 87 WSW 9 15 30.03 1017 N/A 0.00 0.00
8:08 am 08:08 Cloudy 68 20 64 17.8 87 87 WSW 8 13 30.03 1017 N/A 0.00 0.00
8:44 am 08:44 Cloudy 69 20.6 65 18.3 87 87 WSW 7 11 30.03 1017 N/A 0.00 0.00
8:53 am 08:53 Cloudy 69 20.6 65 18.3 87 87 WSW 7 11 30.04 1017 N/A 0.00 0.00
9:40 am 09:40 Cloudy with Rain 68 20 65 18.3 90 90 WNW 14 22 30.03 1017 N/A 0.01 0.25
9:53 am 09:53 Mostly Cloudy with Light Rain 67 19.4 64 17.8 91 91 NW 10 17 30.04 1017 N/A 0.02 0.51
10:09 am 10:09 Mostly Cloudy 70 21.1 65 18.3 84 84 NW 10 17 30.03 1017 N/A 0.00 0.03
10:21 am 10:21 undefined 69 20.6 64 17.8 84 84 W 10 17 30.03 1017 N/A 0.00 0.03
10:53 am 10:53 Cloudy 68 20 63 17.2 84 84 WNW 9 15 30.06 1018 N/A 0.00 0.03
11:05 am 11:05 Cloudy 68 20 63 17.2 84 84 WNW 8 13 30.03 1017 N/A 0.00 0.00
11:53 am 11:53 Cloudy 70 21.1 64 17.8 82 82 NNW 8 13 30.06 1018 N/A 0.00 0.00
12:45 pm 12:45 Mostly Cloudy 72 22.2 63 17.2 73 73 NW 9 15 30.03 1017 N/A 0.00 0.00
12:53 pm 12:53 Mostly Cloudy 71 21.7 63 17.2 76 76 WNW 9 15 30.04 1017 N/A 0.00 0.00
1:53 pm 13:53 Partly Cloudy 74 23.3 64 17.8 71 71 W 12 19 30.05 1018 N/A 0.00 0.00
2:53 pm 14:53 Mostly Sunny 74 23.3 64 17.8 71 71 NW 9 15 30.03 1017 N/A 0.00 0.00
3:53 pm 15:53 Mostly Sunny 73 22.8 63 17.2 71 71 NW 8 13 30.01 1016 N/A 0.00 0.00
4:35 pm 16:35 Mostly Cloudy 72 22.2 63 17.2 73 73 WNW 6 9 30.00 1016 N/A 0.00 0.00
4:48 pm 16:48 Partly Cloudy 72 22 63 17 73 73 WNW 7 11 30.00 1016 N/A 0.00 0.00
4:53 pm 16:53 Mostly Sunny 71 21.7 63 17.2 76 76 NW 9 15 30.01 1016 N/A 0.00 0.00
5:53 pm 17:53 Partly Cloudy 69 20.6 62 16.7 78 78 WNW 7 11 30.01 1016 N/A 0.00 0.00
6:53 pm 18:53 Sunny 67 19.4 60 15.6 79 79 NW 3 6 30.03 1017 N/A 0.00 0.00
7:33 pm 19:33 Mostly Cloudy 67 19.4 60 15.6 79 79 Calm 30.00 1016 N/A 0.00 0.00
7:53 pm 19:53 Cloudy 66 18.9 60 15.6 81 81 NNW 3 6 30.03 1017 N/A 0.00 0.00
8:53 pm 20:53 Mostly Cloudy 66 18.9 60 15.6 81 81 Calm 30.05 1018 N/A 0.00 0.00
9:53 pm 21:53 Cloudy 66 18.9 59 15 78 78 ENE 3 6 30.05 1018 N/A 0.00 0.00
10:53 pm 22:53 Cloudy 65 18.3 59 15 81 81 NE 5 7 30.02 1017 N/A 0.00 0.00
11:53 pm 23:53 Cloudy 65 18.3 59 15 81 81 N 5 7 30.02 1017 N/A 0.00 0.00

Powered by AerisWeather